User: anonymous   Login
Location: Montauk Point State Park
(41.0718°N, 71.8593°W)
Time: 17:58:54
(UTC-05:00)
Language:

Cosmos 1844 - Orbit

View from above orbital plane
View from above orbital plane
View from above satellite
View from above satellite

Ground track
Ground track

The orbit data is extracted from the following two-line orbital elements,

1 17973U 87041A   14330.80204659  .00000116  00000-0  86271-4 0  8919
2 17973 070.9015 080.6155 0028787 084.6698 082.1788 14.13957919421201
Epoch (UTC): 26 November 2014 19:14:56
Eccentricity: 0.0028787
inclination: 70.9015°
perigee height: 825 km
apogee height: 866 km
right ascension of ascending node: 80.6155°
argument of perigee: 84.6698°
revolutions per day: 14.13957919
mean anomaly at epoch: 82.1788°
orbit number at epoch: 42120

The dashed part of the orbit path shows where the satellite is in the earth's shadow,  

DLR